Location: N�rnberg
(49.4489°N, 11.0797°E)
Time: 20:31:02
(UTC+01:00)

ISS - Pass Details

Date: 14 November 2017
Orbit: 402 x 407 km, 51.6° (Epoch: 20 November)

Event Time Altitude Azimuth Distance (km) Brightness Sun altitude
Exits shadow 05:45:25 38° 249° (WSW) 626 -3.3 -16.1°
Maximum altitude 05:46:08 47° 209° (SSW) 542 -3.4 -16.0°
Drops below altitude 10° 05:49:17 10° 134° (SE) 1,451 -0.2 -15.5°
Sets 05:51:23 0° 128° (SE) 2,308 1.2 -15.2°
